FW1577 Weather Reports


time (UTC)temp
C
wind
direction
speed
KPH
gust
KPH
rain 1hr
cm
rain 24hr
cm
rain mn
cm
humidity
%
barometer
mb
20260510023059 15 283 3.2 11.3 0.00 0.00 0.00 77 995.9
20260510021552 14 281 4.8 14.5 0.00 0.00 0.00 76 996.1
20260510020050 14 250 4.8 11.3 0.00 0.00 0.00 78 996.3
20260510014649 14 291 6.4 17.7 0.00 0.00 0.00 78 996.5
20260510013100 14 250 4.8 9.7 0.00 0.00 0.00 78 996.6
20260510011548 14 307 3.2 9.7 0.00 0.00 0.00 78 996.9
20260510010046 13 330 3.2 8.0 0.00 0.00 0.00 78 996.9
20260510004547 13 250 1.6 11.3 0.00 0.00 0.00 79 996.9
20260510003041 13 139 1.6 8.0 0.00 0.00 0.00 81 997.0
20260510001539 13 319 3.2 8.0 0.00 0.00 0.00 82 997.0
20260510000037 12 225 0.0 6.4 0.00 0.00 0.00 84 996.9
20260509234535 12 195 1.6 6.4 0.00 0.00 0.00 85 997.0
20260509233031 12 303 0.0 1.6 0.00 0.00 0.00 90 997.0
20260509231528 11 96 0.0 1.6 0.00 0.00 0.00 93 997.0
20260509230024 10 98 0.0 3.2 0.00 0.00 0.00 93 996.9
20260509224523 10 115 1.6 4.8 0.00 0.00 0.00 92 996.8
20260509223022 9 109 1.6 4.8 0.00 0.00 0.00 93 996.7
20260509221520 9 82 1.6 4.8 0.00 0.00 0.00 93 996.5
20260509220018 8 79 1.6 4.8 0.00 0.00 0.00 94 996.4
20260509214516 8 77 1.6 4.8 0.00 0.00 0.00 95 996.2
20260509213014 8 94 0.0 1.6 0.00 0.00 0.00 96 996.0
20260509211516 7 197 0.0 0.0 0.00 0.00 0.00 96 995.8
20260509210015 7 196 0.0 0.0 0.00 0.00 0.00 95 995.7
20260509204513 7 196 0.0 0.0 0.00 0.00 0.00 95 995.6
20260509203011 7 85 0.0 0.0 0.00 0.00 0.00 95 995.5
20260509201506 8 83 0.0 0.0 0.00 0.00 0.00 94 995.3
20260509200005 8 84 0.0 0.0 0.00 0.00 0.00 95 995.2
20260509194504 8 84 0.0 0.0 0.00 0.00 0.00 94 995.0
20260509193004 8 83 0.0 1.6 0.00 0.00 0.00 94 994.8
20260509191600 8 109 0.0 1.6 0.00 0.00 0.00 93 994.7
20260509190058 9 91 0.0 1.6 0.00 0.00 0.00 93 994.5
20260509184558 10 98 0.0 3.2 0.00 0.00 0.00 94 994.3
20260509183056 10 122 0.0 4.8 0.00 0.00 0.00 94 994.3
20260509181556 9 131 3.2 6.4 0.00 0.00 0.00 94 994.3
20260509180055 9 96 0.0 3.2 0.00 0.00 0.00 95 994.2
20260509174554 9 105 3.2 6.4 0.00 0.00 0.00 95 994.2
20260509173116 9 76 0.0 4.8 0.00 0.00 0.00 95 994.2
20260509171551 9 91 0.0 0.0 0.00 0.00 0.00 95 994.3
20260509170057 10 91 0.0 0.0 0.00 0.00 0.00 94 994.3
20260509164557 10 84 0.0 1.6 0.00 0.00 0.00 95 994.3
20260509163051 10 116 0.0 1.6 0.00 0.00 0.00 95 994.4
20260509161548 10 127 0.0 4.8 0.00 0.00 0.00 96 994.4
20260509160049 9 95 0.0 0.0 0.00 0.00 0.00 96 994.4
20260509154547 10 94 0.0 0.0 0.00 0.00 0.00 96 994.3
20260509153044 10 142 0.0 0.0 0.00 0.00 0.00 96 994.3
20260509151555 10 211 0.0 1.6 0.00 0.00 0.00 97 994.4
20260509150046 10 224 0.0 6.4 0.00 0.00 0.00 97 994.4
20260509144538 8 79 0.0 1.6 0.00 0.00 0.00 96 994.3
20260509143041 8 82 0.0 1.6 0.00 0.00 0.00 97 994.3
20260509141535 8 83 0.0 0.0 0.00 0.00 0.00 96 994.4
20260509140031 8 86 0.0 0.0 0.00 0.00 0.00 95 994.5
20260509134530 8 84 0.0 0.0 0.00 0.00 0.00 95 994.5
20260509133127 8 85 0.0 0.0 0.00 0.00 0.00 95 994.5
20260509131532 8 79 0.0 1.6 0.00 0.00 0.00 95 994.5
20260509130051 8 231 0.0 6.4 0.00 0.00 0.00 95 994.5
20260509124531 9 98 0.0 1.6 0.00 0.00 0.00 95 994.4
20260509123030 8 159 0.0 1.6 0.00 0.00 0.00 95 994.5
20260509121521 8 129 0.0 0.0 0.00 0.00 0.00 95 994.4
20260509120028 9 130 0.0 1.6 0.00 0.00 0.00 94 994.5
20260509114520 9 103 0.0 0.0 0.00 0.00 0.00 94 994.4
20260509113018 9 91 0.0 1.6 0.00 0.00 0.00 94 994.4
20260509111518 10 97 0.0 3.2 0.00 0.00 0.00 95 994.3
20260509110019 9 96 1.6 4.8 0.00 0.00 0.00 95 994.3
20260509104516 9 97 0.0 0.0 0.00 0.00 0.00 96 994.2
20260509103014 9 98 0.0 0.0 0.00 0.00 0.00 95 994.1
20260509101517 9 97 0.0 0.0 0.00 0.00 0.00 94 994.1
20260509100012 10 99 0.0 0.0 0.00 0.00 0.00 93 994.0
20260509094514 10 96 0.0 1.6 0.00 0.00 0.00 95 994.0
20260509093010 10 110 0.0 1.6 0.00 0.00 0.00 93 993.9
20260509091511 10 262 0.0 0.0 0.00 0.00 0.00 92 993.8
20260509090008 11 258 0.0 1.6 0.00 0.00 0.00 91 993.7
20260509084506 11 290 0.0 0.0 0.00 0.00 0.00 90 993.6
20260509083005 12 296 0.0 1.6 0.00 0.00 0.00 89 993.4
20260509081506 12 297 0.0 1.6 0.00 0.00 0.00 88 993.2
20260509080004 12 322 0.0 6.4 0.00 0.00 0.00 87 993.0
20260509074503 12 188 1.6 6.4 0.00 0.00 0.00 87 992.9
20260509073002 13 274 4.8 11.3 0.00 0.00 0.00 87 992.6
20260509071501 13 236 0.0 8.0 0.00 0.00 0.00 87 992.4
20260509070002 13 248 0.0 8.0 0.00 0.00 0.00 87 992.3
20260509064501 14 289 1.6 8.0 0.00 0.00 0.00 85 992.2
20260509063101 14 275 1.6 9.7 0.00 0.00 0.00 84 992.2
20260509061608 15 267 1.6 11.3 0.00 0.00 0.00 81 992.1
20260509060058 15 207 6.4 12.9 0.00 0.00 0.00 81 992.0
20260509054611 15 338 6.4 17.7 0.00 0.00 0.00 81 991.9
20260509053104 15 239 8.0 17.7 0.00 0.00 0.00 81 991.9
20260509051603 15 212 9.7 17.7 0.00 0.00 0.00 80 991.8
20260509050053 15 229 3.2 19.3 0.00 0.00 0.00 82 991.9
20260509044602 15 270 8.0 17.7 0.00 0.00 0.00 80 991.9
20260509043049 15 228 1.6 14.5 0.00 0.00 0.00 81 991.9
20260509041548 15 278 8.0 24.1 0.00 0.00 0.00 80 991.9
20260509040046 15 275 3.2 20.9 0.00 0.00 0.00 81 991.9
20260509034543 15 252 6.4 17.7 0.00 0.00 0.00 81 992.0
20260509033042 15 231 3.2 19.3 0.00 0.00 0.00 80 992.0
20260509031553 15 243 11.3 22.5 0.00 0.00 0.00 80 992.3
20260509030038 15 224 12.9 22.5 0.00 0.00 0.00 81 992.5
20260509024537 15 214 4.8 16.1 0.00 0.00 0.00 81 992.6